TimeCST,TemperatureF,Dew PointF,Humidity,Sea Level PressureIn,VisibilityMPH,Wind Direction,Wind SpeedMPH,Gust SpeedMPH,PrecipitationIn,Events,Conditions,WindDirDegrees,DateUTC
12:56 AM,26.1,14.0,60,30.06,-9999.0,North,18.4,33.4,N/A,,Unknown,350,2013-01-04 06:56:00
1:03 AM,26.6,14.0,59,29.97,-9999.0,NNW,21.9,27.6,N/A,,Unknown,330,2013-01-04 07:03:00
1:56 AM,26.1,12.9,58,30.06,-9999.0,NW,18.4,-,N/A,,Unknown,320,2013-01-04 07:56:00
2:56 AM,26.1,12.9,58,30.07,-9999.0,WNW,17.3,-,N/A,,Unknown,290,2013-01-04 08:56:00
3:56 AM,23.0,12.9,65,30.09,-9999.0,WNW,9.2,-,N/A,,Unknown,300,2013-01-04 09:56:00
4:56 AM,21.9,12.0,66,30.09,-9999.0,NNE,4.6,-,N/A,,Unknown,30,2013-01-04 10:56:00
5:56 AM,21.0,10.9,65,30.10,-9999.0,WNW,3.5,-,N/A,,Unknown,300,2013-01-04 11:56:00
6:56 AM,19.9,10.9,68,30.12,-9999.0,Calm,Calm,-,N/A,,Unknown,0,2013-01-04 12:56:00
7:56 AM,17.1,9.0,71,30.12,-9999.0,WNW,4.6,-,N/A,,Unknown,290,2013-01-04 13:56:00
8:56 AM,18.0,10.0,71,30.15,-9999.0,WNW,8.1,-,N/A,,Unknown,290,2013-01-04 14:56:00
9:56 AM,23.0,12.9,65,30.16,-9999.0,WNW,6.9,-,N/A,,Unknown,290,2013-01-04 15:56:00
10:56 AM,28.0,18.0,66,30.15,-9999.0,NNW,10.4,-,N/A,,Unknown,330,2013-01-04 16:56:00
11:56 AM,30.9,21.0,67,30.14,-9999.0,NNW,4.6,-,N/A,,Unknown,330,2013-01-04 17:56:00
12:56 PM,33.1,21.9,64,30.12,-9999.0,North,3.5,-,N/A,,Unknown,360,2013-01-04 18:56:00
1:56 PM,32.0,23.0,69,30.11,-9999.0,North,6.9,-,N/A,,Unknown,10,2013-01-04 19:56:00
2:56 PM,32.0,23.0,69,30.12,-9999.0,ENE,3.5,-,N/A,,Unknown,60,2013-01-04 20:56:00
3:56 PM,28.0,21.0,75,30.15,-9999.0,NE,5.8,-,N/A,,Unknown,50,2013-01-04 21:56:00
4:56 PM,23.0,18.0,81,30.17,-9999.0,Calm,Calm,-,N/A,,Unknown,0,2013-01-04 22:56:00
5:56 PM,21.0,17.1,85,30.16,-9999.0,Calm,Calm,-,N/A,,Unknown,0,2013-01-04 23:56:00
6:56 PM,18.0,14.0,84,30.15,-9999.0,SSW,3.5,-,N/A,,Unknown,200,2013-01-05 00:56:00
7:56 PM,14.0,12.0,92,30.16,-9999.0,Calm,Calm,-,N/A,,Unknown,0,2013-01-05 01:56:00
8:56 PM,10.9,8.1,88,30.16,-9999.0,Calm,Calm,-,N/A,,Unknown,0,2013-01-05 02:56:00
9:56 PM,10.9,8.1,88,30.13,-9999.0,Calm,Calm,-,N/A,,Unknown,0,2013-01-05 03:56:00
10:56 PM,9.0,6.1,88,30.13,-9999.0,SSW,3.5,-,N/A,,Unknown,210,2013-01-05 04:56:00
11:56 PM,7.0,3.0,84,30.10,-9999.0,NNW,4.6,-,N/A,,Unknown,330,2013-01-05 05:56:00